This is the latest recevied weather packets stored in our database for station/object LU9FW-5. If no packets are shown the sender has not sent any weather packets the latest 10 day(s).
| Time | Temp. | Humidity | Pressure | Rain* | Wind** | Luminosity | Snow |
|---|---|---|---|---|---|---|---|
| 1777598017 | 11.11° C | 93% | 1005.7 hPa | 0 mm | - | - | - |
| 1777597892 | 11.11° C | 93% | 1005.7 hPa | 0 mm | - | - | - |
| 1777597840 | 11.11° C | 93% | 1005.6 hPa | 0 mm | - | - | - |
| 1777597757 | 11.11° C | 93% | 1005.7 hPa | 0 mm | - | - | - |
| 1777597687 | 10.56° C | 93% | 1005.6 hPa | 0 mm | - | - | - |
| 1777597612 | 10.56° C | 93% | 1005.6 hPa | 0 mm | - | - | - |
| 1777597542 | 10.56° C | 92% | 1005.9 hPa | 0 mm | - | - | - |
| 1777597473 | 10.56° C | 92% | 1005.7 hPa | 0 mm | - | - | - |
| 1777597404 | 10.56° C | 92% | 1005.7 hPa | 0 mm | - | - | - |
| 1777597341 | 10.56° C | 92% | 1005.6 hPa | 0 mm | - | - | - |
| 1777597264 | 11.11° C | 91% | 1005.7 hPa | 0 mm | - | - | - |
| 1777597190 | 11.11° C | 91% | 1005.9 hPa | 0 mm | - | - | - |
| 1777597130 | 11.11° C | 91% | 1005.5 hPa | 0 mm | - | - | - |
| 1777597102 | 11.11° C | 91% | 1005.7 hPa | 0 mm | - | - | - |
| 1777596976 | 11.11° C | 91% | 1005.5 hPa | 0 mm | - | - | - |
| 1777596914 | 11.67° C | 90% | 1005.8 hPa | 0 mm | - | - | - |
| 1777596846 | 11.67° C | 90% | 1005.7 hPa | 0 mm | - | - | - |
| 1777596761 | 11.67° C | 90% | 1005.6 hPa | 0 mm | - | - | - |
| 1777596697 | 12.22° C | 90% | 1005.8 hPa | 0 mm | - | - | - |
| 1777596635 | 12.22° C | 90% | 1005.6 hPa | 0 mm | - | - | - |
| 1777596562 | 12.22° C | 90% | 1005.6 hPa | 0 mm | - | - | - |
| 1777596483 | 12.22° C | 90% | 1005.7 hPa | 0 mm | - | - | - |
| 1777596422 | 12.22° C | 89% | 1005.6 hPa | 0 mm | - | - | - |
| 1777596350 | 12.22° C | 89% | 1005.7 hPa | 0 mm | - | - | - |
| 1777596276 | 12.78° C | 89% | 1005.8 hPa | 0 mm | - | - | - |
* Rain latest hour (hover to see other rain measurements)
** Current wind speed in m/s (hover to see current wind gust speed)